User: anonymous   Login
Location: Newark
(42.9260°N, 89.3850°W)
Time: 02:04:30
(UTC+00:00)
Language:

STARLINK-1063 - Orbit

View from above orbital plane
View from above orbital plane
View from above satellite
View from above satellite

Ground track
Ground track

The orbit data is extracted from the following two-line orbital elements,

1 44768C 19074BH  20047.85846711 -.00000310  00000-0 -21260-4 0   478
2 44768  53.0025  80.3763 0001470  61.0687 292.6609 15.05576380    18
Epoch (UTC): 16 February 2020 20:36:11
Eccentricity: 0.0001470
inclination: 53.0025°
perigee height: 549 km
apogee height: 551 km
right ascension of ascending node: 80.3763°
argument of perigee: 61.0687°
revolutions per day: 15.05576380
mean anomaly at epoch: 292.6609°
orbit number at epoch: 1

The dashed part of the orbit path shows where the satellite is in the earth's shadow,  

DLR